This is the latest recevied weather packets stored in our database for station/object N9CQS-15. If no packets are shown the sender has not sent any weather packets the latest 10 day(s).
| Time | Temp. | Humidity | Pressure | Rain* | Wind** | Luminosity | Snow |
|---|---|---|---|---|---|---|---|
| 1778028542 | 7.78° C | 88% | 1010.2 hPa | 21.59 mm | - | - | - |
| 1778027941 | 7.78° C | 88% | 1010.2 hPa | 21.59 mm | - | - | - |
| 1778027341 | 7.78° C | 88% | 1009.9 hPa | 21.59 mm | - | - | - |
| 1778026742 | 8.33° C | 87% | 1010.2 hPa | 21.59 mm | - | - | - |
| 1778026142 | 8.33° C | 85% | 1010.2 hPa | 21.59 mm | - | - | - |
| 1778025541 | 8.33° C | 82% | 1009.9 hPa | 21.08 mm | - | - | - |
| 1778024942 | 8.33° C | 82% | 1010.2 hPa | 21.08 mm | - | - | - |
| 1778024342 | 8.33° C | 79% | 1010.2 hPa | 21.08 mm | - | - | - |
| 1778023742 | 8.33° C | 81% | 1010 hPa | 21.08 mm | - | - | - |
| 1778023142 | 8.33° C | 81% | 1010.2 hPa | 21.08 mm | - | - | - |
| 1778022542 | 8.89° C | 79% | 1010.2 hPa | 21.08 mm | - | - | - |
| 1778021942 | 8.89° C | 79% | 1010.2 hPa | 20.83 mm | - | - | - |
| 1778021342 | 8.89° C | 80% | 1010.5 hPa | 20.83 mm | - | - | - |
| 1778020742 | 9.44° C | 83% | 1010.3 hPa | 20.83 mm | - | - | - |
| 1778020142 | 9.44° C | 83% | 1009.9 hPa | 20.83 mm | - | - | - |
| 1778019542 | 9.44° C | 84% | 1009.8 hPa | 20.83 mm | - | - | - |
| 1778018942 | 9.44° C | 85% | 1009.7 hPa | 20.83 mm | - | - | - |
| 1778018342 | 9.44° C | 86% | 1009.9 hPa | 20.32 mm | - | - | - |
| 1778017742 | 10° C | 87% | 1010 hPa | 20.32 mm | - | - | - |
| 1778017142 | 10° C | 87% | 1010 hPa | 20.32 mm | - | - | - |
| 1778016542 | 10° C | 86% | 1010.6 hPa | 20.32 mm | - | - | - |
| 1778015942 | 9.44° C | 87% | 1010.6 hPa | 20.32 mm | - | - | - |
| 1778015341 | 9.44° C | 86% | 1010.7 hPa | 20.32 mm | - | - | - |
| 1778014742 | 9.44° C | 84% | 1010.8 hPa | 19.56 mm | - | - | - |
| 1778014142 | 10° C | 84% | 1010.8 hPa | 19.56 mm | - | - | - |
* Rain latest 24 hours (hover to see other rain measurements)
** Current wind speed in m/s (hover to see current wind gust speed)